Printer-friendly version
Follow the MPC on Twitter Follow the MPC on Facebook The MPC blog
Minor Planet Center

MPEC 2008-T116: 2008 TO26

The following Minor Planet Electronic Circular may be linked-to from your own Web pages, but must not otherwise be redistributed electronically.

A form allowing access to any MPEC is at the bottom of this page.


Read MPEC 2008-T115 Read MPEC 2008-T117


M.P.E.C. 2008-T116                               Issued 2008 Oct. 10, 19:08 UT

     The Minor Planet Electronic Circulars contain information on unusual
         minor planets and routine data on comets.  They are published
   on behalf of Commission 20 of the International Astronomical Union by the
          Minor Planet Center, Smithsonian Astrophysical Observatory,
                          Cambridge, MA 02138, U.S.A.

             Prepared using the Tamkin Foundation Computer Network

                              MPC@CFA.HARVARD.EDU
          URL http://www.cfa.harvard.edu/iau/mpc.html  ISSN 1523-6714

                                   2008 TO26

Observations:
     K08T26O* C2008 10 09.32120 02 24 48.45 -09 41 29.9          19.5 V ET116703
     K08T26O  C2008 10 09.33069 02 24 47.12 -09 41 13.2          19.5 V ET116703
     K08T26O  C2008 10 09.34038 02 24 45.68 -09 40 59.3          19.1 V ET116703
     K08T26O  C2008 10 09.34998 02 24 44.17 -09 40 42.2          19.1 V ET116703
     K08T26O  C2008 10 09.36219 02 24 42.22 -09 40 21.7          19.3 V ET116703
     K08T26O  C2008 10 09.37125 02 24 40.93 -09 40 07.2          19.3 V ET116703
     K08T26O  C2008 10 09.38051 02 24 39.52 -09 39 51.4          19.1 V ET116703
     K08T26O  C2008 10 09.38960 02 24 38.19 -09 39 36.6          19.3 V ET116703
     K08T26O  C2008 10 09.91785 02 23 23.78 -09 24 54.6          19.4 R ET116473
     K08T26O  C2008 10 09.92780 02 23 22.29 -09 24 37.8          19.3 R ET116473
     K08T26O  C2008 10 09.94791 02 23 19.32 -09 24 04.8          19.1 R ET116473
     K08T26O  C2008 10 09.98988 02 23 13.17 -09 22 55.1          19.0 R ET116204
     K08T26O  C2008 10 10.07161 02 23 00.89 -09 20 37.3                 ET116204
     K08T26O  C2008 10 10.26142 02 22 34.11 -09 15 12.9          19.7 V ET116H55
     K08T26O  C2008 10 10.26684 02 22 33.28 -09 15 03.6          19.8 V ET116H55
     K08T26O  C2008 10 10.26998 02 22 33.31 -09 14 56.3          19.6 V ET116G96
     K08T26O  C2008 10 10.27097 02 22 33.20 -09 14 53.9          19.0 V ET116G96
     K08T26O  C2008 10 10.27202 02 22 33.02 -09 14 52.8          19.2 V ET116G96
     K08T26O  C2008 10 10.27227 02 22 32.45 -09 14 54.6          19.7 V ET116H55
     K08T26O  C2008 10 10.27309 02 22 32.84 -09 14 50.9          19.5 V ET116G96
     K08T26O  C2008 10 10.36305 02 22 19.10 -09 12 18.4          19.1 R ET116682
     K08T26O  C2008 10 10.38515 02 22 15.74 -09 11 40.5          19.1 R ET116682
     K08T26O 9C2008 10 10.41325 02 22 11.63 -09 10 53.0          19.5 R ET116673
     K08T26O 9C2008 10 10.41472 02 22 11.39 -09 10 50.4                 ET116673
     K08T26O 9C2008 10 10.42131 02 22 10.40 -09 10 39.0                 ET116673
     K08T26O 9C2008 10 10.42641 02 22 09.64 -09 10 29.6                 ET116673

Observer details:
204 Schiaparelli Observatory.  Observer L. Buzzi.  0.60-m f/4.64 reflector
    + CCD.
473 Remanzacco.  Observers L. Donato, M. Gonano, V. Gonano, E. Guido,
    V. Santini, G. Sostero.  0.45-m f/4.4 Newtonian reflector + CCD.
673 Table Mountain Observatory, Wrightwood.  Observer H. Rhoades.  0.61-m f/16
    Cassegrain + CCD.
682 Kanab.  Observer E. Sheridan.  0.36-m f/5.5 Schmidt-Cassegrain + CCD.
703 Catalina Sky Survey.  Observer R. E. Hill.  Measurers E. C. Beshore,
    A. Boattini, G. J. Garradd, A. R. Gibbs, A. D. Grauer, R. E. Hill,
    R. A. Kowalski, S. M. Larson, R. H. McNaught.  0.68-m Schmidt + CCD.
G96 Mt. Lemmon Survey.  Observer A. Boattini.  Measurers E. C. Beshore,
    A. Boattini, G. J. Garradd, A. R. Gibbs, A. D. Grauer, R. E. Hill,
    R. A. Kowalski, S. M. Larson, R. H. McNaught.  1.5-m reflector + CCD.
H55 Astronomical Research Observatory, Charleston.  Observer R. Holmes.
    Measurer H. Devore.  0.61-m f/4.0 astrograph + CCD.

Orbital elements:
2008 TO26
Epoch 2008 Nov. 30.0 TT = JDT 2454800.5                 MPC
M  62.09429              (2000.0)            P               Q
n   0.54844477     Peri.  297.52682     +0.89251369     +0.40654476
a   1.4781351      Node    39.37511     -0.22079829     +0.77141973
e   0.1155012      Incl.   17.92951     -0.39327780     +0.48952320
P   1.80           H   20.0           G   0.15           U   9
Residuals in seconds of arc
081009 703  0.2-  0.1+    081009 473  0.9-  0.8+    081010 H55  0.1+  0.3-
081009 703  1.2+  1.1+    081009 473  0.4-  0.1+    081010 G96  0.0   0.4-
081009 703  1.4+  1.1-    081009 204  0.5+  0.9-    081010 682  0.9-  0.8+
081009 703  0.4+  0.1+    081010 204  0.8+  1.3-    081010 682  0.8-  1.0+
081009 703  1.4-  0.3+    081010 H55  0.2+  0.2-    081010 673  0.2+  0.2-
081009 703  0.3-  0.3-    081010 H55  0.1+  0.1-    081010 673  0.0   0.1-
081009 703  0.6-  0.1+    081010 G96  0.0   0.5-    081010 673  0.2+  0.0
081009 703  0.1-  0.2-    081010 G96  0.6+  0.2+    081010 673  0.5+  0.7+
081009 473  0.8-  0.7+    081010 G96  0.3+  0.5-

Ephemeris:
2008 TO26                a,e,i = 1.48, 0.12, 18                  q = 1.3074
Date    TT    R. A. (2000) Decl.     Delta      r     Elong.  Phase     V
2008 10 11    02 20.78   -08 53.8    0.371    1.345   155.5    17.9    19.4
2008 10 21    01 55.17   -03 38.2    0.370    1.357   165.4    10.7    19.2
2008 10 31    01 30.50   +02 03.8    0.390    1.370   162.5    12.6    19.4
2008 11 10    01 11.36   +07 27.9    0.431    1.384   151.5    20.0    19.9
2008 11 20    00 59.81   +12 09.4    0.489    1.399   140.2    26.8    20.4
2008 11 30    00 55.72   +16 06.6    0.560    1.415   130.4    32.1    20.9
2008 12 10    00 58.11   +19 28.8    0.640    1.431   122.0    35.7    21.3
2008 12 20    01 05.73   +22 25.7    0.728    1.447   114.7    38.2    21.6
2008 12 30    01 17.55   +25 04.3    0.819    1.464   108.2    39.7    22.0

Timothy B. Spahr             (C) Copyright 2008 MPC           M.P.E.C. 2008-T116

Read MPEC 2008-T115 Read MPEC 2008-T117


MPEC number:

Enter an MPEC number in one of the following forms:

  • 1997-B01 (the full form)
  • J97B01 (the packed version of the full form)
  • B01 (the abbreviated form)

Valid HTML 4.01!